Montego Bay, Jamaica

8:15 PM EST on August 22, 2017 (GMT -0500)
Sangster International

Weather History for MKJS - December, 2013

Change the Weather History Date:

Monday, December 9, 2013

  Actual Average Record
Temperature  
Mean Temperature 82 °F -  
Max Temperature 88 °F 82 °F 89 °F (2015)
Min Temperature 76 °F 74 °F 71 °F (1996)
Cooling Degree Days 17    
Growing Degree Days 32 (Base 50)    
Moisture  
Dew Point 73 °F    
Average Humidity 78    
Maximum Humidity 89    
Minimum Humidity 62    
Precipitation  
Precipitation 0.02 in - - ()
Sea Level Pressure  
Sea Level Pressure 29.99 in    
Wind  
Wind Speed 8 mph ()    
Max Wind Speed 18 mph    
Max Gust Speed -    
Visibility 8.3 miles    
Events Rain    
Averages and records for this station are not official NWS values.
T = Trace of Precipitation, MM = Missing Value Source: Averaged Metar Reports

Daily Weather History Graph

Daily Weather History Graph

Search for Another Location

Airport or City:

Trip Planner

Search our weather history database for the weather conditions in past years. The results will help you decide how hot, cold, wet, or windy it might be!

Date:

Astronomy

Dec. 09, 2013 Rise Set
Actual Time 6:32 AM EST 5:35 PM EST
Civil Twilight 6:09 AM EST 5:59 PM EST
Nautical Twilight 5:41 AM EST 6:26 PM EST
Astronomical Twilight 5:14 AM EST 6:53 PM EST
Moon 12:12 PM EST (12/9) No Moon Set
Length of Visible Light 11h 50m
Length of Day
11h 02m
Waxing Crescent, 51% of the Moon is Illuminated
Dec 9
Waxing Crescent
Dec 17
Full
Dec 25
Last Quarter
Jan 1
New
Jan 7
First Quarter

Hourly Weather History & Observations

Time (EST) Temp. Heat Index Dew Point Humidity Pressure Visibility Wind Dir Wind Speed Gust Speed Precip Events Conditions
12:00 AM 77.0 °F - 71.6 °F 83% 30.01 in 6.2 mi SE 3.5 mph - N/A   Partly Cloudy
1:00 AM 76 °F - 71 °F 80% 30.01 in 12 mi SSE 9.2 mph - -   Scattered Clouds
1:00 AM 77.0 °F - 71.6 °F 83% 30.01 in 6.2 mi SSE 9.2 mph - N/A   Partly Cloudy
2:00 AM 77.0 °F - 71.6 °F 83% 29.98 in 6.2 mi ESE 8.1 mph - N/A   Partly Cloudy
3:00 AM 77.0 °F - 71.6 °F 83% 29.98 in 6.2 mi SE 5.8 mph - N/A   Partly Cloudy
4:00 AM 77 °F - 71 °F 76% 29.98 in 12 mi ESE 5.8 mph - -   Scattered Clouds
4:00 AM 77.0 °F - 71.6 °F 83% 29.98 in 6.2 mi ESE 5.8 mph - N/A   Partly Cloudy
5:00 AM 77.0 °F - 71.6 °F 83% 29.98 in 6.2 mi ESE 5.8 mph - N/A   Partly Cloudy
6:00 AM 77.0 °F - 71.6 °F 83% 29.98 in 6.2 mi East 5.8 mph - N/A   Partly Cloudy
7:00 AM 78 °F - 71 °F 75% 30.01 in 14 mi ESE 6.9 mph - - Rain Light Rain Showers
7:00 AM 78.8 °F - 71.6 °F 78% 30.01 in 6.2 mi ESE 6.9 mph - N/A   Scattered Clouds
8:00 AM 80.6 °F 85.4 °F 73.4 °F 79% 30.01 in 6.2 mi East 9.2 mph - N/A Rain Light Rain Showers
9:00 AM 78.8 °F - 75.2 °F 89% 30.04 in 6.2 mi East 12.7 mph - N/A Rain Light Rain Showers
10:00 AM 83 °F - 74 °F 69% 30.04 in 14 mi East 13.8 mph - - Rain Light Rain Showers
10:00 AM 82.4 °F 89.5 °F 75.2 °F 79% 30.04 in 6.2 mi East 13.8 mph - N/A   Scattered Clouds
11:00 AM 82.4 °F 89.5 °F 75.2 °F 79% 30.04 in 6.2 mi East 11.5 mph - N/A   Scattered Clouds
12:00 PM 86.0 °F 93.4 °F 73.4 °F 66% 30.01 in 6.2 mi East 15.0 mph - N/A   Partly Cloudy
1:00 PM 85 °F - 74 °F 62% 29.97 in 17 mi ENE 17.3 mph - -   Haze
1:00 PM 84.2 °F 90.9 °F 73.4 °F 70% 29.95 in 6.2 mi ENE 17.3 mph - N/A   Scattered Clouds
2:00 PM 82.4 °F 88.2 °F 73.4 °F 74% 29.95 in 6.2 mi East 13.8 mph - N/A   Scattered Clouds
3:00 PM 84.2 °F 90.9 °F 73.4 °F 70% 29.95 in 6.2 mi East 18.4 mph - N/A   Scattered Clouds
4:00 PM 82 °F - 73 °F 68% 29.94 in 17 mi East 17.3 mph - -   Haze
4:00 PM 82.4 °F 88.2 °F 73.4 °F 74% 29.92 in 6.2 mi East 17.3 mph - N/A   Mostly Cloudy
5:00 PM 82.4 °F 88.2 °F 73.4 °F 74% 29.95 in 6.2 mi East 12.7 mph - N/A   Mostly Cloudy
6:00 PM 78.8 °F - 69.8 °F 74% 29.95 in 6.2 mi ESE 11.5 mph - N/A   Mostly Cloudy
7:00 PM 76 °F - 73 °F 86% 29.98 in 15 mi SSE 6.9 mph - - Rain Light Rain Showers
7:00 PM 77.0 °F - 73.4 °F 89% 29.98 in 6.2 mi SSE 6.9 mph - N/A   Mostly Cloudy
8:00 PM 77.0 °F - 73.4 °F 89% 29.98 in 6.2 mi East 6.9 mph - N/A   Scattered Clouds
9:00 PM 78.8 °F - 73.4 °F 83% 30.01 in 6.2 mi ESE 6.9 mph - N/A   Partly Cloudy
10:00 PM 78 °F - 72 °F 77% 30.00 in 15 mi East 10.4 mph - -   Haze
10:00 PM 78.8 °F - 71.6 °F 78% 29.98 in 6.2 mi East 10.4 mph - N/A   Mostly Cloudy
11:00 PM 77.0 °F - 71.6 °F 83% 29.98 in 6.2 mi ESE 8.1 mph - N/A   Scattered Clouds